{"data":{"norad_id":47656,"epoch":"2026-05-25T02:57:56.702880Z","epoch_age_seconds":60228,"freshness":"FRESH","line1":"1 47656U 21012AN  26145.12357295  .00011580  00000+0  38408-3 0  9996","line2":"2 47656  53.1606  54.0216 0001454 108.9667 251.1492 15.31721237292009","mean_motion":15.31721237,"eccentricity":0.0001454,"inclination_deg":53.1606,"raan_deg":54.0216,"arg_perigee_deg":108.9667,"mean_anomaly_deg":251.1492,"bstar":0.00038408,"rev_number":29200,"period_min":94.011884487569,"perigee_km":469.68087205471,"apogee_km":471.67250707564,"semimajor_km":6848.8136895652,"source":"CELESTRAK","updated_at":"2026-05-25T13:38:16.562819Z"}}